GW2844 Weather Reports


time (UTC)temp
F
wind
direction
speed
knots
gust
knots
rain 1hr
in
rain 24hr
in
rain mn
in
humidity
%
barometer
mb
20260507051544 52 204 4.3 5.2 0.00 0.00 0.00 89 1022.2
20260507051040 52 228 1.7 1.7 0.00 0.00 0.00 89 1021.9
20260507050537 52 222 1.7 1.7 0.00 0.00 0.00 89 1021.9
20260507050033 52 244 1.7 1.7 0.00 0.00 0.00 89 1021.9
20260507045530 52 223 2.6 2.6 0.00 0.00 0.00 89 1021.9
20260507045027 52 223 0.0 0.0 0.00 0.00 0.00 89 1021.9
20260507044524 53 228 3.5 3.5 0.00 0.00 0.00 88 1021.9
20260507044021 53 222 2.6 2.6 0.00 0.00 0.00 88 1021.9
20260507043517 53 222 2.6 2.6 0.00 0.00 0.00 87 1021.9
20260507043014 53 222 2.6 2.6 0.00 0.00 0.00 87 1021.9
20260507042510 53 235 3.5 3.5 0.00 0.00 0.00 86 1021.9
20260507042005 54 228 2.6 2.6 0.00 0.00 0.00 85 1021.9
20260507041503 54 246 3.5 3.5 0.00 0.00 0.00 84 1021.9
20260507040959 54 234 1.7 1.7 0.00 0.00 0.00 83 1021.9
20260507040455 54 198 3.5 4.3 0.00 0.00 0.00 83 1021.9
20260507035951 54 216 6.1 6.1 0.00 0.00 0.00 83 1021.9
20260507035448 54 222 3.5 4.3 0.00 0.00 0.00 83 1021.6
20260507034945 54 228 4.3 5.2 0.00 0.00 0.00 83 1021.6
20260507034442 54 228 3.5 3.5 0.00 0.00 0.00 83 1021.6
20260507033940 54 240 1.7 1.7 0.00 0.00 0.00 83 1021.6
20260507033437 54 222 2.6 3.5 0.00 0.00 0.00 83 1021.2
20260507032934 55 234 2.6 3.5 0.00 0.00 0.00 83 1021.6
20260507032431 55 244 2.6 2.6 0.00 0.00 0.00 83 1021.6
20260507031927 55 246 2.6 2.6 0.00 0.00 0.00 82 1021.6
20260507031426 55 222 3.5 3.5 0.00 0.00 0.00 82 1021.2
20260507030921 55 246 2.6 2.6 0.00 0.00 0.00 82 1021.2
20260507030418 55 222 4.3 5.2 0.00 0.00 0.00 82 1021.2
20260507025915 55 222 3.5 4.3 0.00 0.00 0.00 82 1021.2
20260507025412 55 144 2.6 2.6 0.00 0.00 0.00 82 1021.2
20260507024910 55 240 2.6 2.6 0.00 0.00 0.00 82 1021.2
20260507024407 55 216 2.6 2.6 0.00 0.00 0.00 81 1021.6
20260507023903 55 234 2.6 2.6 0.00 0.00 0.00 81 1021.2
20260507023400 55 234 2.6 3.5 0.00 0.00 0.00 81 1021.2
20260507022857 55 235 4.3 5.2 0.00 0.00 0.00 81 1020.9
20260507022354 55 228 4.3 4.3 0.00 0.00 0.00 81 1021.2
20260507021850 55 236 1.7 1.7 0.00 0.00 0.00 81 1021.2
20260507021345 56 252 1.7 1.7 0.00 0.00 0.00 81 1021.2
20260507020843 56 235 1.7 1.7 0.00 0.00 0.00 80 1020.9
20260507020339 56 224 1.7 1.7 0.00 0.00 0.00 80 1021.2
20260507015836 56 222 1.7 1.7 0.00 0.00 0.00 80 1021.2
20260507015334 56 216 2.6 2.6 0.00 0.00 0.00 80 1021.2
20260507014831 56 222 2.6 3.5 0.00 0.00 0.00 80 1021.2
20260507014327 56 216 1.7 1.7 0.00 0.00 0.00 80 1021.2
20260507013824 56 218 5.2 5.2 0.00 0.00 0.00 80 1021.2
20260507013321 56 270 4.3 5.2 0.00 0.00 0.00 80 1021.2
20260507012819 56 258 1.7 1.7 0.00 0.00 0.00 79 1021.2
20260507012314 56 234 3.5 3.5 0.00 0.00 0.00 79 1021.6
20260507011806 56 236 1.7 1.7 0.00 0.00 0.00 79 1021.2
20260507011303 57 216 2.6 2.6 0.00 0.00 0.00 79 1021.6
20260507010802 56 222 1.7 1.7 0.00 0.00 0.00 79 1021.2
20260507010258 56 222 4.3 5.2 0.00 0.00 0.00 79 1021.6
20260507005756 57 222 0.9 0.9 0.00 0.00 0.00 79 1021.6
20260507005252 56 240 1.7 1.7 0.00 0.00 0.00 79 1021.6
20260507004749 57 240 1.7 1.7 0.00 0.00 0.00 79 1021.6
20260507004247 57 234 1.7 1.7 0.00 0.00 0.00 79 1021.6
20260507003743 57 240 2.6 2.6 0.00 0.00 0.00 80 1021.6
20260507003238 56 216 1.7 1.7 0.00 0.00 0.00 80 1021.6
20260507002734 57 206 2.6 2.6 0.00 0.00 0.00 79 1021.6
20260507002230 56 240 5.2 5.2 0.00 0.00 0.00 80 1021.6
20260507001727 56 222 2.6 2.6 0.00 0.00 0.00 80 1021.6
20260507001225 56 240 3.5 3.5 0.00 0.00 0.00 80 1021.6
20260507000721 57 246 4.3 5.2 0.00 0.00 0.00 80 1021.6
20260507000216 57 240 6.1 6.1 0.00 0.00 0.00 80 1021.9
20260506235714 57 216 3.5 3.5 0.00 0.00 0.00 79 1021.6
20260506235209 57 218 3.5 3.5 0.00 0.00 0.00 78 1021.6
20260506234706 57 222 2.6 2.6 0.00 0.00 0.00 78 1021.6
20260506234204 57 237 4.3 5.2 0.00 0.00 0.00 78 1021.6
20260506233701 57 264 5.2 5.2 0.00 0.00 0.00 78 1021.6
20260506233157 57 264 5.2 5.2 0.00 0.00 0.00 78 1021.6
20260506232654 57 323 1.7 1.7 0.00 0.00 0.00 78 1021.6
20260506232149 57 216 3.5 3.5 0.00 0.00 0.00 78 1021.6
20260506231646 57 210 5.2 5.2 0.00 0.00 0.00 77 1021.6
20260506231145 57 246 4.3 5.2 0.00 0.00 0.00 77 1021.6
20260506230641 58 270 4.3 4.3 0.00 0.00 0.00 77 1021.2
20260506230138 57 262 3.5 3.5 0.00 0.00 0.00 77 1021.2
20260506225635 57 255 3.5 3.5 0.00 0.00 0.00 77 1021.2
20260506225131 57 234 5.2 5.2 0.00 0.00 0.00 77 1021.2
20260506224628 57 246 5.2 6.1 0.00 0.00 0.00 78 1021.2
20260506224124 57 222 2.6 2.6 0.00 0.00 0.00 77 1021.6
20260506223621 57 240 3.5 4.3 0.00 0.00 0.00 77 1021.6
20260506223117 57 224 4.3 4.3 0.00 0.00 0.00 78 1021.6
20260506222614 57 252 2.6 3.5 0.00 0.00 0.00 78 1021.6
20260506222110 56 222 3.5 3.5 0.00 0.00 0.00 79 1021.6
20260506221608 56 249 4.3 5.2 0.00 0.00 0.00 79 1021.6
20260506221106 56 246 3.5 3.5 0.00 0.00 0.00 78 1021.9
20260506220602 56 234 4.3 4.3 0.00 0.00 0.00 78 1021.6
20260506220057 56 258 2.6 3.5 0.00 0.00 0.00 79 1021.9
20260506215554 56 240 3.5 3.5 0.00 0.00 0.00 79 1021.6
20260506215050 56 276 3.5 3.5 0.00 0.00 0.00 79 1021.6
20260506214547 56 210 5.2 5.2 0.00 0.00 0.00 80 1021.9
20260506214044 56 216 1.7 1.7 0.00 0.00 0.00 79 1021.6
20260506213543 56 240 5.2 5.2 0.00 0.00 0.00 80 1021.6
20260506213040 56 210 5.2 6.1 0.00 0.00 0.00 79 1021.6
20260506212536 56 222 4.3 5.2 0.00 0.00 0.00 79 1021.6
20260506212031 56 240 3.5 3.5 0.00 0.00 0.00 79 1021.9
20260506211527 56 228 5.2 5.2 0.00 0.00 0.00 79 1021.6
20260506211024 56 234 6.1 7.0 0.00 0.00 0.00 79 1021.9
20260506210521 56 250 5.2 6.1 0.00 0.00 0.00 78 1021.6
20260506210017 56 210 3.5 3.5 0.00 0.00 0.00 79 1021.2
20260506205514 56 216 5.2 6.1 0.00 0.00 0.00 78 1021.2
20260506205009 57 252 3.5 3.5 0.00 0.00 0.00 78 1021.6
20260506204508 57 210 5.2 5.2 0.00 0.00 0.00 78 1021.9
20260506204004 57 210 8.7 9.6 0.00 0.00 0.00 77 1021.2
20260506203502 56 234 3.5 3.5 0.00 0.00 0.00 78 1021.6
20260506202958 57 271 5.2 5.2 0.00 0.00 0.00 77 1021.2
20260506202456 57 263 3.5 3.5 0.00 0.00 0.00 78 1021.2
20260506201946 56 264 4.3 4.3 0.00 0.00 0.00 77 1021.2
20260506201444 56 210 4.3 5.2 0.00 0.00 0.00 78 1021.2
20260506200941 56 224 4.3 5.2 0.00 0.00 0.00 78 1021.2
20260506200437 56 256 4.3 5.2 0.00 0.00 0.00 79 1021.2
20260506195933 56 282 6.1 6.1 0.00 0.00 0.00 79 1021.2
20260506195430 56 222 3.5 3.5 0.00 0.00 0.00 79 1021.6
20260506194927 55 216 5.2 5.2 0.00 0.00 0.00 80 1021.2
20260506194424 55 240 3.5 4.3 0.00 0.00 0.00 79 1021.6
20260506193921 56 204 7.8 8.7 0.00 0.00 0.00 79 1021.2
20260506193419 56 216 5.2 5.2 0.00 0.00 0.00 79 1021.6
20260506192915 56 222 3.5 3.5 0.00 0.00 0.00 79 1020.9
20260506192412 56 228 4.3 4.3 0.00 0.00 0.00 79 1021.2
20260506191909 56 218 4.3 5.2 0.00 0.00 0.00 79 1020.9
20260506191405 55 252 5.2 6.1 0.00 0.00 0.00 80 1021.2
20260506190902 56 257 7.0 7.8 0.00 0.00 0.00 80 1020.9
20260506190358 56 231 2.6 2.6 0.00 0.00 0.00 80 1020.9
20260506185855 56 192 5.2 6.1 0.00 0.00 0.00 80 1020.9
20260506185352 56 258 4.3 5.2 0.00 0.00 0.00 80 1020.9
20260506184849 56 262 6.1 7.0 0.00 0.00 0.00 80 1020.9
20260506184346 55 216 1.7 1.7 0.00 0.00 0.00 81 1021.2
20260506183844 55 204 4.3 5.2 0.00 0.00 0.00 80 1020.9
20260506183339 55 217 3.5 3.5 0.00 0.00 0.00 81 1021.2
20260506182836 54 261 4.3 5.2 0.00 0.00 0.00 83 1020.9
20260506182333 55 268 5.2 5.2 0.00 0.00 0.00 83 1021.2
20260506181831 55 252 5.2 6.1 0.00 0.00 0.00 83 1021.2
20260506181329 55 218 1.7 1.7 0.00 0.00 0.00 83 1020.9
20260506180826 55 234 2.6 2.6 0.00 0.00 0.00 83 1020.9
20260506180321 54 216 3.5 3.5 0.00 0.00 0.00 84 1020.5
20260506175818 54 240 3.5 4.3 0.00 0.00 0.00 84 1021.2
20260506175315 54 284 5.2 5.2 0.00 0.00 0.00 85 1020.9
20260506174812 54 240 0.0 0.0 0.00 0.00 0.00 85 1020.9
20260506174309 53 251 3.5 4.3 0.00 0.00 0.00 86 1020.9
20260506173807 53 262 3.5 3.5 0.00 0.00 0.00 87 1020.9
20260506173303 54 174 3.5 3.5 0.00 0.00 0.00 85 1020.9
20260506172801 54 216 3.5 3.5 0.00 0.00 0.00 86 1021.2
20260506172257 53 216 2.6 2.6 0.00 0.00 0.00 86 1020.9
20260506171755 53 252 2.6 3.5 0.00 0.00 0.00 87 1021.2
20260506171251 53 192 4.3 5.2 0.00 0.00 0.00 87 1020.9
20260506170749 53 210 5.2 5.2 0.00 0.00 0.00 88 1020.5
20260506170245 53 244 4.3 5.2 0.00 0.00 0.00 87 1020.9
20260506165744 53 261 1.7 1.7 0.00 0.00 0.00 86 1020.9
20260506165241 53 216 6.1 6.1 0.00 0.00 0.00 86 1020.9
20260506164738 53 223 4.3 4.3 0.00 0.00 0.00 86 1020.9
20260506164235 54 240 3.5 3.5 0.00 0.00 0.00 86 1020.9
20260506163732 54 236 2.6 2.6 0.00 0.00 0.00 86 1020.9
20260506163226 54 222 2.6 2.6 0.00 0.00 0.00 86 1020.5
20260506162723 54 138 3.5 3.5 0.00 0.00 0.00 86 1020.5
20260506162220 54 138 2.6 2.6 0.00 0.00 0.00 86 1020.5
20260506161717 54 162 1.7 1.7 0.00 0.00 0.00 86 1020.5
20260506161214 54 144 2.6 3.5 0.00 0.00 0.00 86 1020.2
20260506160712 53 162 1.7 1.7 0.00 0.00 0.00 87 1020.5
20260506160203 53 120 1.7 1.7 0.00 0.00 0.00 87 1020.5
20260506155701 53 216 3.5 3.5 0.00 0.00 0.00 88 1020.5
20260506155158 52 252 3.5 3.5 0.00 0.00 0.00 90 1020.9
20260506153306 52 146 0.9 0.9 0.00 0.00 0.00 90 1020.9
20260506152803 52 216 1.7 1.7 0.00 0.00 0.00 92 1020.9
20260506152300 52 252 3.5 3.5 0.00 0.00 0.00 93 1020.5
20260506151759 52 168 1.7 1.7 0.00 0.00 0.00 93 1020.2
20260506151255 52 168 1.7 1.7 0.00 0.00 0.00 93 1020.5
20260506150751 51 240 0.0 0.0 0.00 0.00 0.00 94 1020.5
20260506150249 51 150 1.7 1.7 0.00 0.00 0.00 94 1020.5
20260506145745 51 222 1.7 1.7 0.00 0.00 0.00 94 1020.9
20260506145242 51 216 0.0 0.0 0.00 0.00 0.00 94 1020.5
20260506144739 51 216 4.3 4.3 0.00 0.00 0.00 94 1020.5
20260506144236 51 246 1.7 1.7 0.00 0.00 0.00 94 1020.5
20260506143734 51 258 1.7 1.7 0.00 0.00 0.00 94 1020.5
20260506143231 51 240 2.6 3.5 0.00 0.00 0.00 94 1020.2
20260506142730 51 228 1.7 1.7 0.00 0.00 0.00 94 1020.2
20260506142227 51 217 3.5 3.5 0.00 0.00 0.00 94 1019.8
20260506141725 51 174 0.0 0.0 0.00 0.00 0.00 94 1020.2
20260506141223 51 240 0.9 0.9 0.00 0.00 0.00 94 1020.2
20260506140721 51 228 4.3 4.3 0.00 0.00 0.00 94 1020.2
20260506140217 51 162 0.0 0.0 0.00 0.00 0.00 94 1020.2
20260506135714 51 252 0.0 0.0 0.00 0.00 0.00 94 1019.8
20260506135210 51 223 0.0 0.0 0.00 0.00 0.00 94 1020.2
20260506134707 51 228 1.7 1.7 0.00 0.00 0.00 94 1019.8
20260506134203 51 222 2.6 3.5 0.00 0.00 0.00 94 1019.8
20260506133701 51 216 0.0 0.0 0.00 0.00 0.00 94 1019.8
20260506133157 51 222 1.7 1.7 0.00 0.00 0.00 94 1019.8
20260506132655 51 216 1.7 1.7 0.00 0.00 0.00 94 1019.8
20260506132151 52 216 0.0 0.0 0.00 0.00 0.00 93 1020.2
20260506131649 51 216 0.0 0.0 0.00 0.00 0.00 94 1019.8
20260506131145 51 216 1.7 1.7 0.00 0.00 0.00 93 1019.8
20260506130642 52 222 1.7 1.7 0.00 0.00 0.00 93 1019.4
20260506130139 52 222 0.0 0.0 0.00 0.00 0.00 93 1019.8
20260506125638 52 228 1.7 1.7 0.00 0.00 0.00 93 1019.4
20260506125135 52 210 1.7 1.7 0.00 0.00 0.00 93 1019.4
20260506124633 52 210 1.7 1.7 0.00 0.00 0.00 92 1019.4
20260506124130 52 235 2.6 3.5 0.00 0.00 0.00 92 1019.4
20260506123628 52 210 1.7 1.7 0.00 0.00 0.00 92 1019.8
20260506123126 52 210 0.0 0.0 0.00 0.00 0.00 92 1019.4
20260506122622 52 210 1.7 1.7 0.00 0.00 0.00 92 1019.4
20260506122120 52 222 1.7 1.7 0.00 0.00 0.00 91 1019.4
20260506121618 52 216 1.7 1.7 0.00 0.00 0.00 91 1019.4
20260506121114 52 244 2.6 2.6 0.00 0.00 0.00 91 1019.4
20260506120612 52 217 2.6 3.5 0.00 0.00 0.00 91 1019.4
20260506120109 52 240 2.6 2.6 0.00 0.00 0.00 90 1019.4
20260506115608 52 210 2.6 2.6 0.00 0.00 0.00 90 1019.1
20260506115105 52 210 1.7 1.7 0.00 0.00 0.00 91 1018.8
20260506114602 52 216 2.6 2.6 0.00 0.00 0.00 90 1019.1
20260506114101 52 229 2.6 2.6 0.00 0.00 0.00 90 1019.1
20260506113558 52 210 1.7 1.7 0.00 0.00 0.00 90 1019.1
20260506113055 53 228 0.9 0.9 0.00 0.00 0.00 90 1019.1
20260506112551 53 240 0.0 0.0 0.00 0.00 0.00 90 1019.1
20260506112049 52 252 1.7 1.7 0.00 0.00 0.00 90 1019.1
20260506111547 52 228 1.7 1.7 0.00 0.00 0.00 90 1019.1
20260506111044 52 144 2.6 2.6 0.00 0.00 0.00 90 1019.1
20260506110542 52 180 1.7 1.7 0.00 0.00 0.00 90 1019.1
20260506110039 52 240 0.0 0.0 0.00 0.00 0.00 90 1019.1
20260506105535 52 246 0.0 0.0 0.00 0.00 0.00 90 1019.1
20260506105032 53 246 1.7 1.7 0.00 0.00 0.00 90 1019.1
20260506104530 53 250 1.7 1.7 0.00 0.00 0.00 90 1019.1
20260506104028 53 250 1.7 1.7 0.00 0.00 0.00 89 1019.1
20260506103525 53 228 1.7 1.7 0.00 0.00 0.00 89 1019.1
20260506103021 53 228 1.7 1.7 0.00 0.00 0.00 89 1018.8
20260506102520 53 229 1.7 1.7 0.00 0.00 0.00 89 1018.8
20260506102017 53 240 2.6 2.6 0.00 0.00 0.00 89 1019.1
20260506101513 53 240 2.6 2.6 0.00 0.00 0.00 89 1018.8
20260506101011 53 268 4.3 4.3 0.00 0.00 0.00 89 1018.8
20260506100509 53 217 1.7 1.7 0.00 0.00 0.00 89 1018.8
20260506100007 53 218 1.7 1.7 0.00 0.00 0.00 89 1018.4
20260506095505 53 251 0.9 0.9 0.00 0.00 0.00 89 1018.4
20260506095001 53 222 1.7 1.7 0.00 0.00 0.00 89 1018.4
20260506094459 53 210 0.0 0.0 0.00 0.00 0.00 89 1018.4
20260506093956 53 217 0.0 0.0 0.00 0.00 0.00 88 1018.4
20260506093455 53 217 2.6 2.6 0.00 0.00 0.00 88 1018.4
20260506092952 53 216 0.0 0.0 0.00 0.00 0.00 88 1018.4
20260506092450 53 235 1.7 1.7 0.00 0.00 0.00 88 1018.4
20260506091946 53 192 2.6 2.6 0.00 0.00 0.00 88 1018.1
20260506091444 53 174 1.7 1.7 0.00 0.00 0.00 88 1018.1
20260506090941 53 216 3.5 3.5 0.00 0.00 0.00 88 1018.4
20260506090439 53 162 0.0 0.0 0.00 0.00 0.00 89 1018.1
20260506085935 53 210 0.0 0.0 0.00 0.00 0.00 89 1018.1
20260506085432 52 210 0.0 0.0 0.00 0.00 0.00 89 1018.1
20260506084928 52 210 0.0 0.0 0.00 0.00 0.00 89 1018.1
20260506084426 52 234 0.0 0.0 0.00 0.00 0.00 89 1018.1
20260506083921 52 234 0.0 0.0 0.00 0.00 0.00 89 1018.1
20260506083419 52 234 0.0 0.0 0.00 0.00 0.00 89 1018.1
20260506082916 52 234 0.0 0.0 0.00 0.00 0.00 89 1018.1
20260506082414 52 210 0.0 0.0 0.00 0.00 0.00 89 1018.1
20260506081909 52 222 2.6 3.5 0.00 0.00 0.00 89 1018.1
20260506081408 52 216 1.7 1.7 0.00 0.00 0.00 89 1018.1
20260506080904 52 222 0.0 0.0 0.00 0.00 0.00 89 1018.1
20260506080402 52 222 1.7 1.7 0.00 0.00 0.00 89 1018.1
20260506073345 52 228 1.7 1.7 0.00 0.00 0.00 89 1017.7
20260506072842 53 228 1.7 1.7 0.00 0.00 0.00 89 1017.7
20260506072339 53 216 1.7 1.7 0.00 0.00 0.00 88 1017.7
20260506071837 53 216 0.0 0.0 0.00 0.00 0.00 88 1017.7
20260506071335 53 210 0.0 0.0 0.00 0.00 0.00 88 1017.4
20260506070831 53 210 0.0 0.0 0.00 0.00 0.00 88 1017.4
20260506070328 53 210 0.0 0.0 0.00 0.00 0.00 88 1017.4
20260506062300 54 217 4.3 4.3 0.00 0.00 0.00 86 1017.4
20260506061756 54 210 1.7 1.7 0.00 0.00 0.00 86 1017.1
20260506061253 55 222 3.5 3.5 0.00 0.00 0.00 86 1017.1
20260506060751 55 228 3.5 3.5 0.00 0.00 0.00 86 1017.1
20260506060249 55 228 3.5 3.5 0.00 0.00 0.00 86 1017.1